Rough River Lake Weather Center

Moon Phase Calendar



Rough River Lake Water Level
Online Cameras

 


      

Current Conditions in Leitchfield
12/1/2022 10:13:16 AM

34°F
Feels Like 29
Clouds
Humidity
63%
Pressure
30.56"
Wind
5 mph (E)
Dew Point
24°F
UV Index
1/10 (Low)
Visibility
6 mi

Hourly Forecast

Date & Time Thu, Dec 1
10:00 AM
Thu, Dec 1
11:00 AM
Thu, Dec 1
12:00 PM
Thu, Dec 1
1:00 PM
Thu, Dec 1
2:00 PM
Thu, Dec 1
3:00 PM
Thu, Dec 1
4:00 PM
Thu, Dec 1
5:00 PM
Thu, Dec 1
6:00 PM
Thu, Dec 1
7:00 PM
Thu, Dec 1
8:00 PM
Thu, Dec 1
9:00 PM
Thu, Dec 1
10:00 PM
Thu, Dec 1
11:00 PM
Fri, Dec 2
12:00 AM
Fri, Dec 2
1:00 AM
Fri, Dec 2
2:00 AM
Fri, Dec 2
3:00 AM
Fri, Dec 2
4:00 AM
Fri, Dec 2
5:00 AM
Fri, Dec 2
6:00 AM
Fri, Dec 2
7:00 AM
Fri, Dec 2
8:00 AM
Fri, Dec 2
9:00 AM
Fri, Dec 2
10:00 AM
Fri, Dec 2
11:00 AM
Fri, Dec 2
12:00 PM
Fri, Dec 2
1:00 PM
Fri, Dec 2
2:00 PM
Fri, Dec 2
3:00 PM
Fri, Dec 2
4:00 PM
Fri, Dec 2
5:00 PM
Fri, Dec 2
6:00 PM
Fri, Dec 2
7:00 PM
Fri, Dec 2
8:00 PM
Fri, Dec 2
9:00 PM
Fri, Dec 2
10:00 PM
Fri, Dec 2
11:00 PM
Sat, Dec 3
12:00 AM
Sat, Dec 3
1:00 AM
Sat, Dec 3
2:00 AM
Sat, Dec 3
3:00 AM
Sat, Dec 3
4:00 AM
Sat, Dec 3
5:00 AM
Sat, Dec 3
6:00 AM
Sat, Dec 3
7:00 AM
Sat, Dec 3
8:00 AM
Sat, Dec 3
9:00 AM
Condition
Clouds

Clouds

Clouds

Clouds

Clouds

Clouds

Clouds

Clouds

Clouds

Clear

Clear

Clear

Clear

Clear

Clear

Clear

Clouds

Clouds

Clouds

Clouds

Clouds

Clouds

Clouds

Clouds

Clouds

Clouds

Clouds

Clouds

Clouds

Clouds

Clouds

Clouds

Clouds

Clouds

Clouds

Rain

Rain

Rain

Rain

Rain

Rain

Rain

Rain

Rain

Rain

Rain

Clouds

Clouds
Temperature 34°F35°F37°F39°F41°F43°F39°F35°F34°F33°F33°F32°F32°F32°F32°F32°F33°F33°F35°F36°F38°F39°F41°F45°F47°F50°F51°F52°F52°F51°F51°F51°F52°F54°F54°F55°F56°F56°F56°F56°F57°F57°F58°F58°F58°F48°F42°F41°F
Feels Like 29°F30°F32°F35°F38°F40°F35°F30°F28°F27°F27°F26°F26°F26°F26°F26°F27°F27°F28°F29°F30°F32°F34°F38°F40°F44°F48°F50°F50°F48°F49°F49°F50°F52°F53°F54°F55°F55°F55°F56°F57°F57°F58°F58°F58°F41°F35°F33°F
Cloudiness 79%80%82%92%96%100%97%82%69%0%0%0%0%0%0%5%13%42%56%64%70%100%100%100%99%95%95%95%95%97%97%98%98%100%100%99%99%99%99%100%100%100%100%100%100%100%100%98%
Visibility 6 mi6 mi6 mi6 mi6 mi6 mi6 mi6 mi6 mi6 mi6 mi6 mi6 mi6 mi6 mi6 mi6 mi6 mi6 mi6 mi6 mi6 mi6 mi6 mi6 mi6 mi6 mi6 mi6 mi6 mi6 mi6 mi6 mi6 mi6 mi6 mi6 mi5 mi6 mi6 mi6 mi6 mi6 mi6 mi6 mi6 mi6 mi6 mi
Precipitation 0%0%0%0%0%0%0%0%0%0%0%0%0%0%0%0%0%0%0%0%0%0%0%0%0%0%0%0%0%0%0%0%0%0%0%24%52%78%88%100%100%99%99%100%100%77%53%30%
Humidity 63%56%49%40%33%29%37%42%45%48%50%52%54%55%57%58%60%62%63%65%65%62%59%54%51%51%53%53%56%61%63%67%70%69%72%75%80%85%90%89%91%94%93%92%91%72%62%57%
Dew Point 24°F22°F21°F18°F16°F13°F15°F14°F15°F15°F16°F17°F17°F18°F18°F19°F20°F22°F24°F25°F27°F27°F28°F29°F30°F32°F34°F36°F37°F38°F39°F41°F42°F44°F46°F48°F50°F51°F53°F53°F55°F56°F56°F56°F56°F39°F30°F27°F
Pressure 30.56"30.56"30.53"30.5"30.5"30.47"30.45"30.45"30.45"30.45"30.42"30.39"30.39"30.39"30.36"30.36"30.36"30.36"30.33"30.33"30.33"30.33"30.33"30.3"30.3"30.24"30.21"30.18"30.18"30.15"30.15"30.12"30.12"30.12"30.09"30.09"30.09"30.06"30.06"30.06"30.06"30.09"30.12"30.12"30.15"30.27"30.33"30.39"
Wind Speed 5 mph5.4 mph5.5 mph5.7 mph4.5 mph4.8 mph4.7 mph6 mph6.3 mph6.2 mph6.5 mph6.6 mph6.6 mph6.7 mph6.7 mph6.5 mph6.3 mph6.9 mph8 mph9.2 mph10.8 mph12 mph13.2 mph14.6 mph15.6 mph17.7 mph17.3 mph17.5 mph17.2 mph17.3 mph16.9 mph18.2 mph19.2 mph19.9 mph21 mph21.4 mph22.3 mph21.8 mph20.7 mph19.4 mph19.3 mph15.6 mph14.5 mph14.1 mph14.3 mph18.8 mph15.8 mph14.3 mph
Wind
Direction
91°
E
106°
ESE
118°
ESE
132°
SE
136°
SE
134°
SE
131°
SE
138°
SE
140°
SE
140°
SE
145°
SE
146°
SE
163°
SSE
165°
SSE
171°
S
173°
S
173°
S
176°
S
177°
S
180°
S
181°
S
179°
S
177°
S
183°
S
186°
S
188°
S
189°
S
192°
SSW
193°
SSW
188°
S
185°
S
182°
S
185°
S
189°
S
186°
S
191°
S
192°
SSW
198°
SSW
199°
SSW
209°
SSW
214°
SW
229°
SW
238°
WSW
248°
WSW
258°
WSW
314°
NW
317°
NW
321°
NW

Daily Forecast

Date High Low Precip. Humidity
Today
Dec 1

Clouds
43 °F
24 °F
0%
56%
Friday
Dec 2

Rain
56 °F
32 °F
78%
51%
Saturday
Dec 3

Rain
58 °F
34 °F
100%
39%
Sunday
Dec 4

Clouds
49 °F
33 °F
0%
31%
Monday
Dec 5

Rain
50 °F
34 °F
100%
64%
Tuesday
Dec 6

Rain
62 °F
53 °F
100%
98%
Wednesday
Dec 7

Rain
47 °F
40 °F
95%
71%
Thursday
Dec 8

Clouds
49 °F
35 °F
0%
54%
Friday
Dec 9

Rain
45 °F
42 °F
82%
91%
Saturday
Dec 10

Clouds
46 °F
39 °F
55%
70%
Sunday
Dec 11

Clouds
40 °F
31 °F
0%
47%
Monday
Dec 12

Clouds
41 °F
32 °F
0%
51%
Tuesday
Dec 13

Snow
34 °F
30 °F
100%
94%
Wednesday
Dec 14

Clouds
35 °F
30 °F
3%
98%
Thursday
Dec 15

Clouds
41 °F
34 °F
0%
89%
Friday
Dec 16

Clouds
50 °F
37 °F
0%
82%

Temperature 8-14 Day Outlook



Precipitation 8-14 Day Outlook






About Us
Contact Us
Site Map
Search Site
Advertise With Us
   
RoughRiver.USLakes.info
THE ROUGH RIVER LAKE WEBSITE

Copyright 2022, Lakes Online
Privacy    |    Legal